| time (UTC) | temp F | wind direction | speed MPH | gust MPH | rain 1hr in | rain 24hr in | rain mn in | humidity % | barometer mb |
| 20260508190032 | 68 | 360 | 2.0 | 14.0 | 0.00 | 0.00 | 0.00 | 47 | 1011.5 |
| 20260508184533 | 67 | 360 | 3.0 | 15.0 | 0.00 | 0.00 | 0.00 | 46 | 1011.6 |
| 20260508183035 | 66 | 360 | 3.0 | 12.0 | 0.00 | 0.00 | 0.00 | 45 | 1011.8 |
| 20260508181533 | 65 | 257 | 2.0 | 10.0 | 0.00 | 0.00 | 0.00 | 52 | 1012.0 |
| 20260508180036 | 64 | 360 | 2.0 | 15.0 | 0.00 | 0.00 | 0.00 | 48 | 1012.1 |
| 20260508174537 | 65 | 360 | 3.0 | 9.0 | 0.00 | 0.00 | 0.00 | 46 | 1012.4 |
| 20260508173036 | 66 | 360 | 3.0 | 17.0 | 0.00 | 0.00 | 0.00 | 53 | 1012.7 |
| 20260508171534 | 66 | 360 | 3.0 | 13.0 | 0.00 | 0.00 | 0.00 | 50 | 1012.9 |
| 20260508170033 | 65 | 360 | 3.0 | 11.0 | 0.00 | 0.00 | 0.00 | 48 | 1013.1 |
| 20260508164533 | 65 | 360 | 2.0 | 16.0 | 0.00 | 0.00 | 0.00 | 51 | 1013.1 |
| 20260508163036 | 65 | 360 | 2.0 | 13.0 | 0.00 | 0.00 | 0.00 | 52 | 1013.2 |
| 20260508161535 | 64 | 200 | 2.0 | 13.0 | 0.00 | 0.00 | 0.00 | 54 | 1013.5 |
| 20260508160033 | 63 | 360 | 2.0 | 9.0 | 0.00 | 0.00 | 0.00 | 55 | 1013.7 |
| 20260508154537 | 63 | 360 | 3.0 | 15.0 | 0.00 | 0.00 | 0.00 | 52 | 1013.8 |
| 20260508153038 | 62 | 360 | 2.0 | 10.0 | 0.00 | 0.00 | 0.00 | 54 | 1013.9 |
| 20260508151532 | 61 | 360 | 1.0 | 13.0 | 0.00 | 0.00 | 0.00 | 57 | 1014.2 |
| 20260508150051 | 60 | 360 | 1.0 | 8.0 | 0.00 | 0.00 | 0.00 | 60 | 1014.3 |
| 20260508144534 | 58 | 360 | 1.0 | 12.0 | 0.00 | 0.00 | 0.00 | 59 | 1014.6 |
| 20260508143046 | 58 | 360 | 2.0 | 5.0 | 0.00 | 0.00 | 0.00 | 57 | 1014.6 |
| 20260508141533 | 57 | 360 | 1.0 | 14.0 | 0.00 | 0.00 | 0.00 | 56 | 1014.5 |
| 20260508140036 | 57 | 360 | 3.0 | 12.0 | 0.00 | 0.00 | 0.00 | 56 | 1014.5 |
| 20260508134534 | 56 | 360 | 3.0 | 11.0 | 0.00 | 0.00 | 0.00 | 55 | 1014.6 |
| 20260508133038 | 55 | 360 | 2.0 | 11.0 | 0.00 | 0.00 | 0.00 | 59 | 1014.7 |
| 20260508131534 | 53 | 360 | 2.0 | 10.0 | 0.00 | 0.00 | 0.00 | 62 | 1014.6 |
| 20260508130035 | 51 | 360 | 1.0 | 9.0 | 0.00 | 0.00 | 0.00 | 64 | 1014.5 |
| 20260508124533 | 51 | 360 | 2.0 | 9.0 | 0.00 | 0.00 | 0.00 | 66 | 1014.6 |
| 20260508123037 | 50 | 0 | 1.0 | 9.0 | 0.00 | 0.00 | 0.00 | 66 | 1014.6 |
| 20260508121535 | 50 | 173 | 2.0 | 6.0 | 0.00 | 0.00 | 0.00 | 68 | 1014.5 |
| 20260508120032 | 49 | 360 | 2.0 | 9.0 | 0.00 | 0.00 | 0.00 | 70 | 1014.4 |
| 20260508114535 | 47 | 360 | 1.0 | 5.0 | 0.00 | 0.00 | 0.00 | 71 | 1014.2 |
| 20260508113034 | 47 | 360 | 1.0 | 5.0 | 0.00 | 0.00 | 0.00 | 71 | 1014.2 |
| 20260508111533 | 47 | 360 | 2.0 | 5.0 | 0.00 | 0.00 | 0.00 | 72 | 1014.1 |
| 20260508110031 | 46 | 360 | 1.0 | 5.0 | 0.00 | 0.00 | 0.00 | 72 | 1013.9 |
| 20260508104537 | 46 | 360 | 1.0 | 6.0 | 0.00 | 0.00 | 0.00 | 72 | 1013.8 |
| 20260508103037 | 45 | 205 | 1.0 | 5.0 | 0.00 | 0.00 | 0.00 | 74 | 1013.9 |
| 20260508101542 | 44 | 201 | 0.0 | 3.0 | 0.00 | 0.00 | 0.00 | 75 | 1013.8 |
| 20260508100035 | 44 | 360 | 0.0 | 2.0 | 0.00 | 0.00 | 0.00 | 74 | 1013.9 |
| 20260508094532 | 44 | 0 | 0.0 | 4.0 | 0.00 | 0.00 | 0.00 | 73 | 1013.9 |
| 20260508093038 | 44 | 360 | 0.0 | 2.0 | 0.00 | 0.00 | 0.00 | 73 | 1014.0 |
| 20260508091535 | 44 | 0 | 0.0 | 2.0 | 0.00 | 0.00 | 0.00 | 72 | 1013.9 |
| 20260508090037 | 45 | 0 | 0.0 | 2.0 | 0.00 | 0.00 | 0.00 | 70 | 1014.0 |
| 20260508084532 | 45 | 210 | 0.0 | 2.0 | 0.00 | 0.00 | 0.00 | 69 | 1013.8 |
| 20260508083033 | 45 | 0 | 0.0 | 2.0 | 0.00 | 0.00 | 0.00 | 68 | 1013.7 |
| 20260508081543 | 46 | 0 | 0.0 | 2.0 | 0.00 | 0.00 | 0.00 | 67 | 1013.8 |
| 20260508080054 | 46 | 217 | 0.0 | 2.0 | 0.00 | 0.00 | 0.00 | 66 | 1013.7 |
| 20260508074535 | 47 | 360 | 0.0 | 3.0 | 0.00 | 0.00 | 0.00 | 65 | 1013.8 |
| 20260508073032 | 47 | 360 | 1.0 | 4.0 | 0.00 | 0.00 | 0.00 | 64 | 1013.7 |
| 20260508071536 | 47 | 0 | 1.0 | 4.0 | 0.00 | 0.00 | 0.00 | 64 | 1013.7 |
| 20260508070033 | 47 | 225 | 1.0 | 5.0 | 0.00 | 0.00 | 0.00 | 64 | 1014.0 |
| 20260508064546 | 47 | 218 | 1.0 | 8.0 | 0.00 | 0.00 | 0.00 | 64 | 1014.1 |
| 20260508063035 | 47 | 204 | 1.0 | 5.0 | 0.00 | 0.00 | 0.00 | 64 | 1014.2 |
| 20260508061537 | 47 | 360 | 0.0 | 5.0 | 0.00 | 0.00 | 0.00 | 66 | 1014.3 |
| 20260508060035 | 47 | 0 | 0.0 | 4.0 | 0.00 | 0.00 | 0.00 | 66 | 1014.3 |
| 20260508054542 | 47 | 0 | 1.0 | 4.0 | 0.00 | 0.00 | 0.00 | 66 | 1014.2 |
| 20260508053035 | 47 | 0 | 0.0 | 3.0 | 0.00 | 0.00 | 0.00 | 67 | 1014.3 |
| 20260508051539 | 47 | 208 | 1.0 | 5.0 | 0.00 | 0.00 | 0.00 | 68 | 1014.3 |
| 20260508050043 | 47 | 209 | 1.0 | 5.0 | 0.00 | 0.00 | 0.00 | 68 | 1014.3 |
| 20260508044533 | 47 | 197 | 1.0 | 4.0 | 0.00 | 0.00 | 0.00 | 67 | 1014.3 |
| 20260508043034 | 47 | 360 | 1.0 | 5.0 | 0.00 | 0.00 | 0.00 | 66 | 1014.3 |
| 20260508041532 | 47 | 214 | 1.0 | 3.0 | 0.00 | 0.00 | 0.00 | 68 | 1014.3 |
| 20260508040048 | 47 | 360 | 0.0 | 2.0 | 0.00 | 0.00 | 0.00 | 68 | 1014.5 |
| 20260508034541 | 47 | 0 | 1.0 | 3.0 | 0.00 | 0.00 | 0.00 | 69 | 1014.2 |
| 20260508033033 | 46 | 0 | 1.0 | 5.0 | 0.00 | 0.00 | 0.00 | 70 | 1014.2 |
| 20260508031533 | 45 | 360 | 1.0 | 2.0 | 0.00 | 0.00 | 0.00 | 70 | 1014.2 |
| 20260508030037 | 46 | 0 | 0.0 | 1.0 | 0.00 | 0.00 | 0.00 | 71 | 1014.2 |
| 20260508024535 | 46 | 0 | 0.0 | 1.0 | 0.00 | 0.00 | 0.00 | 71 | 1014.1 |
| 20260508023035 | 46 | 0 | 0.0 | 0.0 | 0.00 | 0.00 | 0.00 | 69 | 1014.2 |
| 20260508021539 | 47 | 0 | 0.0 | 0.0 | 0.00 | 0.00 | 0.00 | 68 | 1014.2 |
| 20260508020034 | 46 | 0 | 0.0 | 0.0 | 0.00 | 0.00 | 0.00 | 69 | 1014.2 |
| 20260508014538 | 46 | 0 | 0.0 | 0.0 | 0.00 | 0.00 | 0.00 | 69 | 1014.2 |
| 20260508013035 | 47 | 0 | 0.0 | 0.0 | 0.00 | 0.00 | 0.00 | 68 | 1014.1 |
| 20260508011537 | 48 | 0 | 0.0 | 0.0 | 0.00 | 0.00 | 0.00 | 66 | 1014.1 |
| 20260508010038 | 49 | 0 | 0.0 | 0.0 | 0.00 | 0.00 | 0.00 | 63 | 1014.0 |
| 20260508004545 | 51 | 0 | 0.0 | 0.0 | 0.00 | 0.00 | 0.00 | 62 | 1014.0 |
| 20260508003036 | 53 | 0 | 0.0 | 0.0 | 0.00 | 0.00 | 0.00 | 57 | 1013.9 |
| 20260508001533 | 54 | 0 | 0.0 | 0.0 | 0.00 | 0.00 | 0.00 | 52 | 1013.8 |
| 20260508000136 | 55 | 0 | 0.0 | 2.0 | 0.00 | 0.00 | 0.00 | 46 | 1013.7 |
| 20260507234545 | 56 | 360 | 0.0 | 3.0 | 0.00 | 0.00 | 0.00 | 45 | 1013.7 |
| 20260507233039 | 57 | 271 | 1.0 | 2.0 | 0.00 | 0.00 | 0.00 | 43 | 1013.4 |
| 20260507231533 | 58 | 272 | 0.0 | 5.0 | 0.00 | 0.00 | 0.00 | 42 | 1013.4 |
| 20260507230032 | 58 | 0 | 0.0 | 8.0 | 0.00 | 0.00 | 0.00 | 40 | 1013.4 |
| 20260507224535 | 59 | 0 | 0.0 | 4.0 | 0.00 | 0.00 | 0.00 | 42 | 1013.5 |
| 20260507223043 | 59 | 310 | 1.0 | 9.0 | 0.00 | 0.00 | 0.00 | 42 | 1013.7 |
| 20260507221536 | 59 | 360 | 1.0 | 8.0 | 0.00 | 0.00 | 0.00 | 42 | 1013.9 |
| 20260507220038 | 58 | 243 | 1.0 | 8.0 | 0.00 | 0.00 | 0.00 | 46 | 1013.9 |
| 20260507214532 | 59 | 5 | 1.0 | 10.0 | 0.00 | 0.00 | 0.00 | 42 | 1013.9 |
| 20260507213033 | 58 | 322 | 1.0 | 6.0 | 0.00 | 0.00 | 0.00 | 43 | 1013.9 |
| 20260507211540 | 59 | 325 | 1.0 | 8.0 | 0.00 | 0.00 | 0.00 | 45 | 1013.8 |
| 20260507210045 | 58 | 337 | 1.0 | 9.0 | 0.00 | 0.00 | 0.00 | 42 | 1013.8 |
| 20260507204542 | 59 | 360 | 1.0 | 9.0 | 0.00 | 0.00 | 0.00 | 44 | 1013.7 |
| 20260507203038 | 59 | 0 | 1.0 | 6.0 | 0.00 | 0.00 | 0.00 | 47 | 1013.7 |
| 20260507201533 | 60 | 343 | 1.0 | 11.0 | 0.00 | 0.00 | 0.00 | 43 | 1013.7 |
| 20260507200034 | 59 | 314 | 1.0 | 9.0 | 0.00 | 0.00 | 0.00 | 50 | 1013.6 |
| 20260507194547 | 58 | 277 | 2.0 | 12.0 | 0.00 | 0.00 | 0.00 | 44 | 1013.8 |
| 20260507193034 | 58 | 338 | 1.0 | 8.0 | 0.00 | 0.00 | 0.00 | 46 | 1013.7 |
| 20260507191539 | 58 | 350 | 1.0 | 9.0 | 0.00 | 0.00 | 0.00 | 47 | 1013.7 |